Satellite: COMPASS
Catalog number: 32787
Epoch time:      12151.67295968
Element set:    0318
Inclination:      097.8009 deg
RA of node:       213.3945 deg
Eccentricity:    0.0016345
Arg of perigee:   116.0294 deg
Mean anomaly:     244.2616 deg
Mean motion:   14.83946065 rev/day
Decay rate:      1.839e-05 rev/day^2
Epoch rev:           22121
Checksum:              311

Satellite: AAUSAT2
Catalog number: 32788
Epoch time:      12151.84862412
Element set:     306
Inclination:      097.8033 deg
RA of node:       213.9385 deg
Eccentricity:    0.0016304
Arg of perigee:   115.9801 deg
Mean anomaly:     244.3034 deg
Mean motion:   14.84259814 rev/day
Decay rate:      1.110e-05 rev/day^2
Epoch rev:           22126
Checksum:              274

Satellite: DO-64
Catalog number: 32789
Epoch time:      12151.71134102
Element set:     322
Inclination:      097.8130 deg
RA of node:       215.7592 deg
Eccentricity:    0.0015958
Arg of perigee:   113.7400 deg
Mean anomaly:     246.5479 deg
Mean motion:   14.85707327 rev/day
Decay rate:      2.277e-05 rev/day^2
Epoch rev:           22128
Checksum:              301

Satellite: CO-66
Catalog number: 32791
Epoch time:      12152.19535630
Element set:     306
Inclination:      097.8005 deg
RA of node:       213.6609 deg
Eccentricity:    0.0016749
Arg of perigee:   114.8526 deg
Mean anomaly:     245.4484 deg
Mean motion:   14.83372899 rev/day
Decay rate:      1.188e-05 rev/day^2
Epoch rev:           22122
Checksum:              317

Satellite: RS-30
Catalog number: 32953
Epoch time:      12152.38736904
Element set:     825
Inclination:      082.4996 deg
RA of node:       305.5851 deg
Eccentricity:    0.0018567
Arg of perigee:   348.0571 deg
Mean anomaly:     012.0072 deg
Mean motion:   12.43023859 rev/day
Decay rate:        1.0e-07 rev/day^2
Epoch rev:           18247
Checksum:              294

Satellite: TACSAT-3
Catalog number: 35001
Epoch time:      12121.72616188
Element set:    0001
Inclination:      040.4259 deg
RA of node:       351.8840 deg
Eccentricity:    0.0007146
Arg of perigee:   275.2650 deg
Mean anomaly:     085.0693 deg
Mean motion:   16.45157000 rev/day
Decay rate:  1.5204951e-01 rev/day^2
Epoch rev:           16699
Checksum:              280

Satellite: PHARMSAT
Catalog number: 35002
Epoch time:      12152.22064957
Element set:     916
Inclination:      040.4581 deg
RA of node:       175.8128 deg
Eccentricity:    0.0005799
Arg of perigee:   111.0709 deg
Mean anomaly:     249.0764 deg
Mean motion:   15.81244893 rev/day
Decay rate:     8.8984e-04 rev/day^2
Epoch rev:           17163
Checksum:              314

Satellite: METEOR-M
Catalog number: 35865
Epoch time:      12152.33079989
Element set:     457
Inclination:      098.6556 deg
RA of node:       206.9713 deg
Eccentricity:    0.0003343
Arg of perigee:   095.8330 deg
Mean anomaly:     264.3229 deg
Mean motion:   14.21863013 rev/day
Decay rate:       -1.1e-07 rev/day^2
Epoch rev:           14020
Checksum:              288

Satellite: RS-38
Catalog number: 35869
Epoch time:      12152.49515934
Element set:     465
Inclination:      098.6512 deg
RA of node:       207.1306 deg
Eccentricity:    0.0005493
Arg of perigee:   097.2346 deg
Mean anomaly:     262.9457 deg
Mean motion:   14.22071836 rev/day
Decay rate:        2.9e-07 rev/day^2
Epoch rev:           14024
Checksum:              312

Satellite: JUGNU
Catalog number: 37839
Epoch time:      12150.23237523
Element set:    0158
Inclination:      019.9583 deg
RA of node:       113.0534 deg
Eccentricity:    0.0019605
Arg of perigee:   016.2085 deg
Mean anomaly:     343.8895 deg
Mean motion:   14.12056232 rev/day
Decay rate:       6.19e-06 rev/day^2
Epoch rev:           03256
Checksum:              282

Satellite: SRMSAT
Catalog number: 37841
Epoch time:      12150.26108914
Element set:    0160
Inclination:      019.9697 deg
RA of node:       117.3923 deg
Eccentricity:    0.0011769
Arg of perigee:   341.2744 deg
Mean anomaly:     018.7278 deg
Mean motion:   14.10140464 rev/day
Decay rate:       2.64e-06 rev/day^2
Epoch rev:           03252
Checksum:              277

Satellite: RAX-2
Catalog number: 37853
Epoch time:      12152.55650693
Element set:     191
Inclination:      101.7166 deg
RA of node:       185.1679 deg
Eccentricity:    0.0247363
Arg of perigee:   038.3562 deg
Mean anomaly:     323.4920 deg
Mean motion:   14.79895900 rev/day
Decay rate:      4.568e-05 rev/day^2
Epoch rev:            3193
Checksum:              323

Satellite: AUBIESAT
Catalog number: 37854
Epoch time:      12152.58308381
Element set:     192
Inclination:      101.7153 deg
RA of node:       185.4222 deg
Eccentricity:    0.0247835
Arg of perigee:   038.0762 deg
Mean anomaly:     323.7665 deg
Mean motion:   14.80262451 rev/day
Decay rate:      4.963e-05 rev/day^2
Epoch rev:            3193
Checksum:              294

Satellite: HRBE
Catalog number: 37855
Epoch time:      12151.98678002
Element set:    0192
Inclination:      101.7195 deg
RA of node:       184.5267 deg
Eccentricity:    0.0248738
Arg of perigee:   039.4831 deg
Mean anomaly:     322.4202 deg
Mean motion:   14.80122460 rev/day
Decay rate:      4.904e-05 rev/day^2
Epoch rev:           03184
Checksum:              291

Satellite: RS-39
Catalog number: 38051
Epoch time:      12152.54274817
Element set:     382
Inclination:      051.6329 deg
RA of node:       239.1371 deg
Eccentricity:    0.0012196
Arg of perigee:   339.5104 deg
Mean anomaly:     146.8636 deg
Mean motion:   15.24038817 rev/day
Decay rate:      7.502e-05 rev/day^2
Epoch rev:            1943
Checksum:              300

Satellite: E-STAR
Catalog number: 38079
Epoch time:      12151.90691471
Element set:     260
Inclination:      069.4949 deg
RA of node:       355.1413 deg
Eccentricity:    0.0748960
Arg of perigee:   269.6523 deg
Mean anomaly:     081.8862 deg
Mean motion:   14.13905201 rev/day
Decay rate:     1.4681e-04 rev/day^2
Epoch rev:            1514
Checksum:              310

Satellite: GOLIAT
Catalog number: 38085
Epoch time:      12152.59466905
Element set:     240
Inclination:      069.4916 deg
RA of node:       353.7821 deg
Eccentricity:    0.0752577
Arg of perigee:   268.9923 deg
Mean anomaly:     082.4859 deg
Mean motion:   14.12984601 rev/day
Decay rate:     1.6479e-04 rev/day^2
Epoch rev:            1523
Checksum:              338

Satellite: HORYU-2
Catalog number: 38340
Epoch time:      12151.12852606
Element set:      21
Inclination:      098.1740 deg
RA of node:       090.8180 deg
Eccentricity:    0.0013874
Arg of perigee:   031.9477 deg
Mean anomaly:     328.2512 deg
Mean motion:   14.69939215 rev/day
Decay rate:       7.96e-06 rev/day^2
Epoch rev:             182
Checksum:              287

/EX




More information about the Keps mailing list